sat.trackr.live / text

‹ back to catalog

EUTELSAT 7 WEST A

NORAD 37816 · 2011-051A

PAYLOAD ACTIVE UNKNOWN

§ Identity

Operator
Country
EUTE
Launch date
2011-09-24
Launch site
SEAL
Launch vehicle
Mass (kg)
RCS (m²)
15.85

Purposes: comms

External: N2YO · Heavens-Above · Gunter

§ Orbital elements

Epoch: 2026-09-20T03:11:58.314048Z

Period
1,436.08 min
Inclination
0.0654°
Eccentricity
0.0006071
Mean motion
1.00272800 rev/d
Perigee alt
35,760.7 km
Apogee alt
35,811.9 km
Semi-major
42,164.4 km
B*
0.0000e+0
RAAN
5.2511°
Arg perigee
171.2525°
Mean anomaly
223.2169°
Rev number
5,482

§ Raw data

EUTELSAT 7 WEST A1 37816U 11051A   26263.13331382 -.00000064  00000+0  00000+0 0  99952 37816   0.0654   5.2511 0006071 171.2525 223.2169  1.00272800 54827

JSON: /api/v1/satellites/37816 · /tle

For live sub-satellite position, see the globe view (requires WebGL).

§ Visibility from observer

Set your observer location to see the next 7 days of passes ≥ 10°. The values pass through the URL so the page stays shareable.

No JS? Fill the form by hand. The geolocation button needs JavaScript.